Regional Weather Roundup
Issued by NWS

Home | Current Version | Previous Version | Graphics & Text | Print | Product List | Glossary On
Versions: 1 2 3 4 5 6 7 8 9 10 11 12 13 14 15 16 17 18 19 20 21 22 23 24 25 26 27 28
000
ASUS45 KCYS 300110
RWRWY

WYOMING REGIONAL WEATHER ROUNDUP
NATIONAL WEATHER SERVICE CHEYENNE WY
700 PM MDT MON MAY 29 2017

NOTE:  "FAIR" INDICATES FEW OR NO CLOUDS BELOW 12,000 FEET
WITH NO SIGNIFICANT WEATHER AND/OR OBSTRUCTIONS TO VISIBILITY.

WYZ001-300200-
YELLOWSTONE NATIONAL PARK

CITY           SKY/WX    TMP DP  RH WIND       PRES   REMARKS
LK YELLOWSTONE   N/A     57  25  29 CALM      30.29F
W YELLOWSTONE  NOT AVBL

$$
WYZ002>013-054>058-071-098>099-300200-
NORTHERN WYOMING

CITY           SKY/WX    TMP DP  RH WIND       PRES   REMARKS
JACKSON        MOSUNNY   64  32  29 N7        30.20F
CODY           FAIR      68  32  26 N9        30.18
GREYBULL       FAIR      74  25  16 N17       30.10F
WORLAND        FAIR      71  33  24 N8        30.12F
SHERIDAN       FAIR      66  40  38 N10       30.15F
BUFFALO        FAIR      63  34  33 N16G25    30.19S
GILLETTE       FAIR      64  31  28 NW14G21   30.15F
HULETT         FAIR      63  27  25 N14G20    30.16S
NEWCASTLE      FAIR      64  23  20 NW16G22   30.15S

$$
WYZ014>020-022>026-101>103-300200-
CENTRAL WYOMING

CITY           SKY/WX    TMP DP  RH WIND       PRES   REMARKS
BIG PINEY      FAIR      65  29  25 NW7       30.22F
PINEDALE       MOCLDY    64  28  25 NW6       30.23S
DUBOIS         FAIR      57  34  41 SE17G23   30.25R
LANDER         FAIR      63  42  46 NW6       30.18F
RIVERTON       FAIR      64  38  38 NE9       30.18F
CASPER         FAIR      64  41  42 N9        30.19S
DOUGLAS        FAIR      65  36  34 N16G22    30.18S

$$
WYZ021-027>030-104>119-300200-
SOUTHERN WYOMING

CITY           SKY/WX    TMP DP  RH WIND       PRES   REMARKS
EVANSTON       FAIR      69  27  20 N7        30.21S
KEMMERER         N/A     64  32  29 CALM      30.24S
FORT BRIDGER   FAIR      68  25  19 CALM      30.24S
ROCK SPRINGS   LGT RAIN  61  37  41 E13       30.20F
DIXON            N/A     65  36  33 SE10      30.23S
RAWLINS        LGT RAIN  57  37  47 CALM      30.24S
SARATOGA       FAIR      61  32  33 N6        30.25F
LARAMIE        CLOUDY    57  32  38 N7        30.25R
CHEYENNE       FAIR      60  39  45 CALM      30.21S
TORRINGTON     FAIR      69  31  24 N13G20    30.12S
PINE BLUFFS    FAIR      61  41  48 SW9       30.19F

$$




USA.gov is the U.S. government's official web portal to all federal, state and local government web resources and services.